Clines Corners, NM

10:13 PM MST on February 19, 2017 (GMT -0700)
Clines Corner

Weather History for KCQC - October, 2011

Change the Weather History Date:

Saturday, October 22, 2011

  Actual Average (KSAF) Record (KSAF)
Temperature  
Mean Temperature 52 °F -  
Max Temperature 69 °F 59 °F 80 °F (2003)
Min Temperature 37 °F 30 °F 5 °F (1996)
Degree Days  
Heating Degree Days 12    
Growing Degree Days 2 (Base 50)    
Moisture  
Dew Point 18 °F    
Average Humidity 28    
Maximum Humidity 43    
Minimum Humidity 15    
Precipitation  
Precipitation 0.00 in - - ()
Sea Level Pressure  
Sea Level Pressure 30.07 in    
Wind  
Wind Speed 12 mph (NW)    
Max Wind Speed 23 mph    
Max Gust Speed 31 mph    
Visibility 10 miles    
Events      
Averages and records for this station are not official NWS values.
T = Trace of Precipitation, MM = Missing Value Source: NWS Daily Summary

Daily Weather History Graph

Daily Weather History Graph

Search for Another Location

Airport or City:

Trip Planner

Search our weather history database for the weather conditions in past years. The results will help you decide how hot, cold, wet, or windy it might be!

Date:

Astronomy

Oct. 22, 2011 Rise Set
Actual Time 7:14 AM MDT 6:19 PM MDT
Civil Twilight 6:48 AM MDT 6:45 PM MDT
Nautical Twilight 6:19 AM MDT 7:14 PM MDT
Astronomical Twilight 5:49 AM MDT 7:43 PM MDT
Moon 2:25 AM MDT (10/22) 3:29 PM MDT (10/22)
Length of Visible Light 11h 56m
Length of Day
11h 04m
Waning Crescent, 23% of the Moon is Illuminated
Oct 22
Waning Crescent
Oct 26
New
Nov 2
First Quarter
Nov 10
Full
Nov 18
Last Quarter

Hourly Weather History & Observations

Time (MDT) Temp. Windchill Dew Point Humidity Pressure Visibility Wind Dir Wind Speed Gust Speed Precip Events Conditions
12:53 AM 42.1 °F 38.4 °F 17.1 °F 37% 30.06 in 10.0 mi WNW 5.8 mph - N/A   Clear
1:53 AM 43.0 °F 39.5 °F 17.1 °F 35% 30.05 in 10.0 mi West 5.8 mph - N/A   Clear
2:53 AM 37.9 °F 30.0 °F 17.1 °F 43% 30.07 in 10.0 mi WNW 12.7 mph - N/A   Clear
3:53 AM 41.0 °F 33.5 °F 17.1 °F 38% 30.05 in 10.0 mi WNW 13.8 mph - N/A   Clear
4:53 AM 39.9 °F 31.8 °F 17.1 °F 40% 30.05 in 10.0 mi NW 15.0 mph - N/A   Clear
5:53 AM 42.1 °F 34.9 °F 17.1 °F 37% 30.05 in 10.0 mi WNW 13.8 mph - N/A   Clear
6:53 AM 39.9 °F 32.1 °F 17.1 °F 40% 30.12 in 10.0 mi WNW 13.8 mph - N/A   Clear
7:53 AM 42.1 °F 35.7 °F 18.0 °F 38% 30.14 in 10.0 mi WNW 11.5 mph - N/A   Clear
8:53 AM 52.0 °F - 19.0 °F 27% 30.13 in 10.0 mi NW 12.7 mph - N/A   Clear
9:53 AM 57.9 °F - 19.9 °F 23% 30.09 in 10.0 mi NW 13.8 mph - N/A   Clear
10:53 AM 61.0 °F - 19.9 °F 21% 30.11 in 10.0 mi WNW 17.3 mph - N/A   Clear
11:53 AM 64.0 °F - 19.0 °F 18% 30.07 in 10.0 mi NW 23.0 mph 31.1 mph N/A   Clear
12:53 PM 66.0 °F - 17.1 °F 15% 30.05 in 10.0 mi NW 21.9 mph 28.8 mph N/A   Clear
1:53 PM 66.9 °F - 18.0 °F 15% 30.03 in 10.0 mi NNW 20.7 mph 28.8 mph N/A   Clear
2:53 PM 68.0 °F - 18.0 °F 15% 30.03 in 10.0 mi NNW 21.9 mph 28.8 mph N/A   Clear
3:53 PM 66.9 °F - 19.9 °F 17% 30.03 in 10.0 mi NW 15.0 mph 27.6 mph N/A   Clear
4:53 PM 66.9 °F - 18.0 °F 15% 30.03 in 10.0 mi WNW 19.6 mph 26.5 mph N/A   Clear
5:53 PM 64.0 °F - 18.0 °F 17% 30.04 in 10.0 mi NW 15.0 mph - N/A   Clear
6:53 PM 57.0 °F - 19.0 °F 23% 30.08 in 10.0 mi NW 11.5 mph - N/A   Clear
7:53 PM 55.9 °F - 18.0 °F 23% 30.10 in 10.0 mi WNW 16.1 mph - N/A   Clear
8:53 PM 52.0 °F - 18.0 °F 26% 30.09 in 10.0 mi WNW 12.7 mph - N/A   Clear
9:53 PM 46.9 °F - 18.0 °F 32% 30.09 in 10.0 mi WNW 12.7 mph - N/A   Clear
10:53 PM 46.9 °F - 18.0 °F 32% 30.09 in 10.0 mi North 6.9 mph - N/A   Clear
11:53 PM 46.0 °F 40.6 °F 19.0 °F 34% 30.07 in 10.0 mi NNE 11.5 mph - N/A   Clear